�_�ʐ�͌���@�\�w���ɂ��Y���u�C�̈ړ���,,,,,,,,
�@,Time,Lat.,,Long.,,Direction,Speed,
Date(yy/mm/dd),(hh:mm),(deg),(min),(deg),(min),(deg),(m/s),(knots)
2004/11/23,10:00,36,45.984,137,13.188,,,
2004/11/23,10:05,36,45.99,137,13.188,0,0.01,0.02
2004/11/23,10:10,36,46.002,137,13.2,56.4,0.09,0.17
2004/11/23,10:15,36,46.014,137,13.188,303.6,0.09,0.17
2004/11/23,10:20,36,46.026,137,13.182,323,0.06,0.12
2004/11/23,10:25,36,46.044,137,13.164,307.8,0.14,0.27
2004/11/23,10:30,36,46.056,137,13.158,323,0.06,0.12
2004/11/23,10:35,36,46.068,137,13.14,293.9,0.12,0.24
2004/11/23,10:40,36,46.074,137,13.14,0,0.01,0.02
2004/11/23,10:45,36,46.086,137,13.128,303.6,0.09,0.17
2004/11/23,10:50,36,46.098,137,13.11,293.9,0.12,0.24
2004/11/23,10:55,36,46.116,137,13.074,291.2,0.24,0.46
2004/11/23,11:00,36,46.14,137,13.068,343.3,0.13,0.25
2004/11/23,11:05,36,46.146,137,13.05,276.2,0.11,0.22
2004/11/23,11:10,36,46.152,137,13.032,276.2,0.11,0.22
2004/11/23,11:15,36,46.17,137,13.032,0,0.11,0.22
2004/11/23,11:20,36,46.176,137,12.996,279.5,0.23,0.44


�A,Time,Lat.,,Long.,,Direction,Speed,
Date(yy/mm/dd),(hh:mm),(deg),(min),(deg),(min),(deg),(m/s),(knots)
2004/11/23,11:35,36,46.092,137,13.56,,,
2004/11/23,11:40,36,46.128,137,13.578,26.6,0.25,0.48
2004/11/23,11:45,36,46.176,137,13.602,26.6,0.33,0.64
2004/11/23,11:50,36,46.206,137,13.596,348.7,0.19,0.37
2004/11/23,11:55,36,46.242,137,13.602,9.5,0.23,0.44
2004/11/23,12:00,36,46.278,137,13.614,18.4,0.23,0.46
2004/11/23,12:05,36,46.314,137,13.614,0,0.22,0.43
2004/11/23,12:10,36,46.326,137,13.596,303.7,0.13,0.26
2004/11/23,12:15,36,46.368,137,13.62,29.7,0.3,0.58
2004/11/23,12:20,36,46.404,137,13.626,9.5,0.23,0.44
2004/11/23,12:25,36,46.434,137,13.626,0,0.19,0.36
2004/11/23,12:30,36,46.464,137,13.626,0,0.19,0.36
2004/11/23,12:35,36,46.494,137,13.614,338.2,0.2,0.39
2004/11/23,12:40,36,46.506,137,13.608,333.4,0.08,0.16
2004/11/23,12:45,36,46.536,137,13.626,31,0.22,0.42
2004/11/23,12:50,36,46.56,137,13.626,0,0.15,0.29
2004/11/23,12:55,36,46.572,137,13.608,303.7,0.13,0.26
2004/11/23,13:00,36,46.596,137,13.602,346,0.15,0.3
2004/11/23,13:05,36,46.608,137,13.596,333.4,0.08,0.16
2004/11/23,13:15,36,46.656,137,13.578,339.4,0.16,0.31
2004/11/23,13:20,36,46.668,137,13.566,315,0.1,0.2
2004/11/23,13:25,36,46.686,137,13.566,0,0.11,0.22
2004/11/23,13:30,36,46.704,137,13.56,341.6,0.12,0.23
2004/11/23,13:35,36,46.722,137,13.554,341.6,0.12,0.23
2004/11/23,13:40,36,46.74,137,13.536,315,0.16,0.31
2004/11/23,13:45,36,46.758,137,13.518,298.4,0.18,0.35
2004/11/23,13:50,36,46.77,137,13.512,300,0.1,0.19
2004/11/23,13:55,36,46.782,137,13.5,291.9,0.13,0.26
2004/11/23,14:00,36,46.794,137,13.5,315.5,0.07,0.13
2004/11/23,14:05,36,46.806,137,13.488,291.9,0.13,0.26
2004/11/23,14:10,36,46.836,137,13.488,343.2,0.17,0.33
2004/11/23,14:15,36,46.848,137,13.476,298.4,0.12,0.23
2004/11/23,14:20,36,46.86,137,13.47,309.7,0.09,0.17


�B,Time,Lat.,,Long.,,Direction,Speed,
Date(yy/mm/dd),(hh:mm),(deg),(min),(deg),(min),(deg),(m/s),(knots)
2004/11/23,10:00,36,45.984,137,13.374,,,
2004/11/23,10:05,36,46.026,137,13.362,342.5,0.25,0.48
2004/11/23,10:10,36,46.068,137,13.356,351,0.24,0.46
2004/11/23,10:15,36,46.104,137,13.314,307.3,0.33,0.63
2004/11/23,10:20,36,46.14,137,13.254,298.1,0.42,0.82
2004/11/23,10:25,36,46.176,137,13.236,330.6,0.23,0.44
2004/11/23,10:30,36,46.212,137,13.212,323.1,0.25,0.48
2004/11/23,10:35,36,46.23,137,13.176,291.2,0.24,0.46
2004/11/23,10:40,36,46.26,137,13.128,298.4,0.34,0.65
2004/11/23,10:45,36,46.284,137,13.116,329,0.14,0.28
2004/11/23,10:50,36,46.302,137,13.098,307.8,0.14,0.27
2004/11/23,10:55,36,46.308,137,13.068,273.8,0.19,0.36
2004/11/23,11:00,36,46.32,137,13.068,0,0.05,0.1
2004/11/23,11:05,36,46.338,137,13.032,291.2,0.24,0.46
2004/11/23,11:10,36,46.35,137,13.026,323,0.06,0.12
2004/11/23,11:15,36,46.356,137,13.014,296.6,0.08,0.16
2004/11/23,11:20,36,46.374,137,12.996,315,0.16,0.31


�C,Time,Lat.,,Long.,,Direction,Speed,
Date(yy/mm/dd),(hh:mm),(deg),(min),(deg),(min),(deg),(m/s),(knots)
2004/11/23,11:30,36,46.044,137,13.494,,,
2004/11/23,11:35,36,46.098,137,13.506,12.5,0.34,0.66
2004/11/23,11:40,36,46.158,137,13.512,5.7,0.37,0.72
2004/11/23,11:45,36,46.206,137,13.518,7.1,0.3,0.58
2004/11/23,11:50,36,46.254,137,13.518,0,0.3,0.58
2004/11/23,11:55,36,46.302,137,13.518,0,0.3,0.58
2004/11/23,12:00,36,46.35,137,13.512,352.9,0.3,0.58
2004/11/23,12:05,36,46.392,137,13.512,0,0.26,0.5
2004/11/23,12:10,36,46.428,137,13.506,350.5,0.23,0.44
2004/11/23,12:15,36,46.464,137,13.5,350.5,0.23,0.44
2004/11/23,12:20,36,46.494,137,13.488,338.2,0.2,0.39
2004/11/23,12:25,36,46.518,137,13.482,346,0.15,0.3
2004/11/23,12:30,36,46.542,137,13.458,315,0.21,0.41
2004/11/23,12:35,36,46.566,137,13.452,346,0.15,0.3
2004/11/23,12:40,36,46.59,137,13.44,333.4,0.17,0.32
2004/11/23,12:45,36,46.608,137,13.428,326.3,0.13,0.26
2004/11/23,12:50,36,46.632,137,13.404,315,0.21,0.41
2004/11/23,12:55,36,46.662,137,13.392,338.2,0.2,0.39
2004/11/23,13:00,36,46.686,137,13.374,323.1,0.19,0.36
2004/11/23,13:05,36,46.71,137,13.35,315,0.21,0.41
2004/11/23,13:10,36,46.734,137,13.344,346,0.15,0.3
2004/11/23,13:15,36,46.764,137,13.326,329,0.22,0.42
2004/11/23,13:20,36,46.782,137,13.32,341.6,0.12,0.23
2004/11/23,13:25,36,46.806,137,13.308,333.4,0.17,0.32
2004/11/23,13:30,36,46.824,137,13.308,0,0.11,0.22
2004/11/23,13:35,36,46.86,137,13.302,350.5,0.23,0.44
2004/11/23,13:40,36,46.872,137,13.302,0,0.07,0.14
2004/11/23,13:45,36,46.902,137,13.308,356,0.16,0.31
2004/11/23,13:50,36,46.92,137,13.308,330.7,0.1,0.19
2004/11/23,13:55,36,46.938,137,13.314,352.5,0.09,0.17
2004/11/23,14:00,36,46.962,137,13.326,11.8,0.13,0.24
2004/11/23,14:05,36,46.974,137,13.332,347.1,0.05,0.1
2004/11/23,14:10,36,47.01,137,13.344,7.4,0.2,0.39
2004/11/23,14:15,36,47.022,137,13.362,53.9,0.1,0.19
2004/11/23,14:20,36,47.052,137,13.368,1.6,0.17,0.33
2004/11/23,14:25,36,47.076,137,13.38,17.6,0.14,0.27
